#timestamp,LO_Frequency,Hit,StdDev 
1590310815.3,286047003.8,N
1590310835.1,286047008.3,N
1590310855.9,286047013.9,N
1590310875.7,286047016.3,N
1590310895.6,286047024.8,Y
1590310915.4,286047024.1,P
1590310935.2,286047019.1,N
1590310955.1,286047018.8,N
1590310956.0,286047018.8,N
1590310975.8,286047014.3,N
1590310995.7,286047015.6,N
1590311015.5,286047011.2,N
1590311035.3,286047008.5,N
1590311055.2,286047001.3,N
1590311075.0,286047000.7,N
1590311075.9,286047000.7,N
1590311095.8,286046999.6,N
1590311115.6,286046999.5,N
1590311135.4,286046999.5,N
1590311155.3,286046996.7,N
1590311175.1,286046999.4,N
1590311195.8,286046998.7,N
1590311215.7,286046998.3,N
1590311235.5,286047001.2,N
1590311255.4,286046997.0,N
1590311275.2,286046997.9,N
1590311295.0,286046996.7,N
1590311295.9,286046996.7,N
1590311315.8,286046999.5,N
1590311335.6,286046996.7,N
1590311355.5,286046997.0,N
1590311375.3,286046995.1,N
1590311395.1,286046994.4,N
1590311415.9,286046992.9,N
1590311435.7,286046991.4,N
1590311455.5,286046992.8,N
1590311475.4,286046990.2,N
1590311495.2,286046989.1,N
1590311515.1,286046985.6,N
1590311516.0,286046985.6,N
1590311535.8,286046986.0,N
1590311555.6,286046986.2,N
1590311575.5,286046987.3,N
1590311595.3,286047000.7,N
1590311615.2,286047000.3,N
1590311635.0,286047003.8,N
1590311635.9,286047003.8,N
1590311655.8,286047001.4,N
1590311675.6,286047000.2,N
1590311695.4,286046996.7,N
1590311715.3,286047000.2,N
1590311735.1,286046995.6,N
1590311755.8,286046994.8,N
1590311775.7,286046990.1,N
1590311795.5,286046989.0,N
1590311815.4,286046991.9,N
1590311835.2,286046993.0,N
1590311855.0,286046992.9,N
1590311855.9,286046992.9,N
1590311875.8,286046992.6,N
1590311895.6,286047000.4,N
1590311915.4,286046998.9,N
1590311935.3,286046997.9,N
1590311955.1,286046994.1,N
1590311975.9,286046990.2,N
1590311995.7,286046989.3,N
1590312015.5,286046987.2,N
1590312035.4,286046986.5,N
1590312055.2,286046984.7,N
1590312075.1,286046982.6,N
1590312076.0,286046982.6,N
1590312095.8,286046984.9,N
1590312115.6,286046983.8,N
1590312135.5,286046988.1,N
1590312155.3,286046989.1,N
1590312175.1,286046988.5,N
1590312195.9,286046990.0,N
1590312215.7,286046985.9,N
1590312235.6,286046985.1,N
1590312255.4,286046981.5,Y
1590312275.2,286046989.7,P
1590312295.1,286046989.0,P
1590312296.0,286046989.0,P
1590312315.8,286046988.7,Y
1590312335.7,286046999.0,P
1590312355.5,286046998.7,N
1590312375.3,286047001.0,N
1590312395.2,286047001.1,N
1590312415.0,286047000.9,N
1590312415.9,286047000.9,N
1590312435.8,286047000.9,N
1590312455.6,286046996.6,N
1590312475.4,286046994.9,N
1590312495.3,286046993.5,N
1590312515.1,286046993.7,N
1590312535.9,286046995.6,N
1590312555.7,286046995.0,N
1590312575.5,286046995.2,N
1590312595.4,286046995.7,N
1590312615.2,286046993.5,N
1590312635.0,286046996.7,N
1590312635.9,286046996.7,N
1590312655.8,286046996.4,N
1590312675.6,286046996.2,N
1590312695.5,286046994.6,N
1590312715.3,286046993.4,N
1590312735.1,286046993.8,N
1590312755.9,286046995.9,N
1590312775.7,286046995.7,N
1590312795.5,286046999.1,N
1590312815.4,286046995.0,N
1590312835.2,286046999.0,N
1590312855.1,286046999.1,N
1590312856.0,286046999.1,N
1590312875.8,286046997.4,N
1590312895.6,286046997.5,N
1590312915.5,286046998.2,N
1590312935.3,286046996.7,N
1590312955.2,286046995.3,N
1590312975.9,286046994.9,N
1590312995.7,286046997.0,N
1590313015.6,286046999.1,N
1590313035.4,286046997.3,N
1590313055.2,286046995.7,N
1590313075.1,286046991.7,Y
1590313076.0,286046991.7,P
1590313095.1,286046994.2,N
1590313096.0,286046994.2,P
1590313115.8,286046994.6,Y
1590313135.6,286047000.8,P
1590313155.5,286046999.2,N
1590313175.3,286046997.5,N
1590313195.2,286047011.9,Y
1590313215.9,286046997.3,P
1590313235.7,286046995.8,P
1590313285.6,286046995.1,E
1590313295.5,286046999.9,N
1590313315.4,286047000.3,P
1590313335.2,286047001.1,P
1590313355.0,286046999.2,N
1590313355.9,286046999.2,N
1590313375.8,286046997.0,Y
1590313395.6,286046996.9,P
1590313415.5,286046999.2,N
1590313435.3,286046996.6,N
1590313455.1,286046998.0,N
1590313475.9,286046995.2,Y
1590313495.7,286046997.7,P
1590313515.6,286046997.4,P
1590313535.4,286046997.2,P
1590313555.2,286046998.0,Y
1590313575.1,286046998.4,P
1590313576.0,286046998.4,P
1590313595.8,286047001.1,N
1590313615.7,286047001.1,N
1590313635.5,286046998.5,N
1590313655.3,286046999.4,N
1590313675.2,286046999.1,N
1590313695.0,286046998.5,N
1590313695.9,286046998.5,N
1590313715.8,286046998.7,N
1590313735.6,286046999.5,N
1590313755.4,286047001.0,N
1590313775.3,286047000.4,N
1590313795.1,286046998.1,N
1590313815.9,286046998.7,N
1590313835.7,286046996.9,N
1590313855.5,286046995.1,Y
1590313875.4,286046994.9,P
1590313895.2,286047000.2,N
1590313915.1,286047000.4,N
1590313916.0,286047000.4,N
1590313935.8,286047000.4,N
1590313955.6,286046996.9,N
1590313975.5,286047001.8,N
1590313995.3,286047007.3,Y
1590314015.2,286047006.9,P
1590314035.9,286047003.0,N
1590314055.7,286047005.4,N
1590314075.6,286047005.9,N
1590314095.4,286047004.2,N
1590314115.3,286047002.8,N
1590314135.1,286046999.9,N
1590314136.0,286046999.9,N
1590314155.8,286047000.7,N
1590314175.7,286047000.4,N
1590314195.5,286047000.1,N
1590314215.3,286047001.9,N
1590314235.2,286047000.2,N
1590314255.0,286047000.2,N
1590314255.9,286047000.2,N
1590314275.8,286047002.8,N
1590314295.6,286047000.6,N
1590314315.4,286046998.2,N
1590314335.3,286046998.3,N
1590314355.1,286046999.1,N
1590314375.9,286046999.2,N
1590314395.7,286046999.4,N
